Dewpoint
38 48 54 60 62 64 65 66 66 67 66 66 64 64 63 61 61 60 61 59 59 58 55 55 53 49 47 44 45 44 47 50
43 52 56 62 64 66 66 66 66 66 64 62 59 60 56 56 56 55 56 56 56 57 54 53 52 49 47 47 46 48 49 50
40 52 59 63 64 66 66 66 65 64 63 62 60 57 54 54 54 53 52 53 55 54 53 52 50 47 48 47 48 46 48 49
44 46 51 62 64 66 66 65 64 64 62 59 54 53 52 51 51 52 52 52 53 51 51 49 49 47 45 48 49 48 46 49
49 50 47 49 62 66 66 64 62 62 59 56 54 56 53 53 53 52 51 51 49 48 47 47 46 45 46 46 47 50 48 46
52 53 54 56 59 58 60 59 57 57 57 56 56 52 50 48 48 46 47 48 48 46 46 45 46 46 45 45 44 44 45 45
52 54 55 54 55 54 54 54 54 54 52 52 50 49 48 47 46 45 45 44 44 45 45 44 45 43 43 42 43 42 42 41
51 52 53 53 53 52 51 51 51 51 51 51 51 50 49 48 47 45 44 44 43 44 45 44 43 42 41 41 40 40 40 40
51 52 53 53 53 53 53 51 51 51 51 52 51 50 49 49 47 46 47 45 44 44 44 44 43 43 43 43 42 41 42 43
51 52 53 54 54 55 55 54 53 53 52 52 50 50 49 48 46 48 47 46 45 45 44 42 42 42 40 40 40 39 38 37
51 52 53 52 53 53 54 54 53 53 53 52 50 49 48 48 47 47 46 45 44 42 42 40 38 38 37 36 35 35 34 34
51 52 51 50 51 51 52 52 52 53 53 52 51 50 49 49 48 48 47 44 42 40 39 37 37 36 36 34 34 33 32 32
49 49 49 49 49 49 50 50 51 52 52 52 52 51 50 50 47 44 42 40 40 37 37 35 35 35 36 34 31 32 32 32
46 48 48 48 48 48 48 49 49 51 50 52 52 51 49 47 45 43 42 40 39 37 36 35 35 36 35 36 35 33 32 31
44 46 48 48 48 48 49 50 51 51 51 51 50 50 49 48 46 45 44 42 40 38 37 36 37 36 34 33 33 34 34 33
42 44 46 47 48 50 50 51 52 51 50 50 51 50 49 47 46 45 44 43 40 38 37 37 37 37 35 36 36 35 34 30
39 38 40 43 45 48 50 51 51 51 50 50 50 48 46 46 45 44 43 42 40 39 39 39 40 37 35 35 35 35 32 29
35 35 38 41 42 44 46 49 51 50 50 50 46 46 45 46 44 43 43 42 42 41 39 39 37 38 34 34 34 34 32 33
37 39 39 40 42 42 46 48 49 49 50 47 44 44 40 44 42 38 39 40 36 35 35 35 37 35 34 33 32 36 34 34
Lifted_Index
4 3 0 -2 -3 -4 -3 -3 -3 -3 -3 -2 -2 -2 -2 -3 -4 -4 -4 -3 -3 -3 -2 -0 1 2 4 6 8 8 7 7
4 2 -0 -2 -4 -4 -3 -3 -3 -3 -3 -3 -3 -3 -3 -3 -4 -4 -4 -3 -3 -3 -1 0 1 2 4 6 8 8 7 7
5 3 -0 -2 -4 -4 -4 -4 -3 -3 -3 -3 -3 -3 -3 -3 -3 -3 -3 -3 -2 -1 -0 1 1 2 4 7 8 8 7 7
5 4 2 -1 -3 -4 -4 -4 -4 -3 -3 -3 -3 -3 -3 -3 -2 -2 -2 -1 -0 1 1 2 3 4 6 8 9 8 7 7
5 5 4 2 -1 -3 -4 -4 -4 -4 -4 -4 -4 -3 -3 -2 -2 -1 -1 1 2 3 4 4 5 7 9 11 10 9 9 8
5 5 5 3 0 -2 -3 -4 -4 -4 -4 -4 -4 -3 -3 -2 -2 -1 0 3 5 7 7 8 9 10 12 13 13 12 11 10
5 5 5 3 2 -0 -2 -3 -3 -3 -3 -3 -3 -3 -2 -1 -1 0 2 5 7 9 10 10 11 12 13 14 14 14 13 12
4 4 4 3 2 1 -0 -1 -2 -2 -2 -2 -1 -1 -0 0 2 3 5 7 8 9 10 10 11 12 13 14 14 13 13 13
3 3 3 3 3 2 1 1 1 0 1 1 2 2 3 3 4 6 7 7 7 8 9 10 11 12 12 12 12 11 11 11
3 3 3 3 2 2 3 3 3 3 3 4 4 5 5 5 6 6 7 7 8 8 9 10 11 11 11 10 10 10 10 10
3 3 3 2 2 3 3 4 4 5 5 5 5 5 6 6 6 6 7 7 7 8 9 9 10 11 11 11 10 11 11 11
2 2 2 2 2 3 3 3 4 5 5 5 5 5 6 6 6 6 5 5 6 7 8 8 9 10 11 11 10 10 11 11
1 1 1 1 2 2 2 3 3 4 4 4 4 5 5 5 5 4 4 4 5 6 7 8 8 8 9 8 8 9 9 10
0 0 0 0 1 1 2 2 2 3 3 3 4 4 4 4 4 4 4 4 5 6 7 8 7 7 7 7 7 8 9 9
-0 -0 -0 -0 -0 0 1 1 1 2 3 3 3 3 3 3 4 4 4 5 6 7 7 7 7 7 6 6 7 7 8 8
0 0 -0 -0 -0 0 0 1 1 2 2 2 3 3 3 4 4 4 5 5 6 6 6 6 6 6 6 6 6 6 7 7
1 1 1 0 0 0 0 0 1 1 2 2 2 3 3 4 4 4 4 5 5 5 5 5 5 5 5 5 5 5 6 6
3 3 2 2 1 1 1 1 1 1 1 1 2 2 3 3 4 4 4 4 4 4 4 4 4 4 4 4 4 5 6 6
4 3 3 2 2 2 1 1 1 1 1 1 2 2 3 3 3 3 4 4 4 4 4 4 3 3 3 3 4 5 6 7